| time (UTC) | temp F | wind direction | speed knots | gust knots | rain 1hr in | rain 24hr in | rain mn in | humidity % | barometer mb |
| 20260504081459 | 39 | 143 | 0.9 | 0.9 | 0.00 | 0.00 | 0.00 | 65 | 1012.5 |
| 20260504045958 | 42 | 162 | 0.0 | 1.7 | 0.00 | 0.00 | 0.00 | 60 | 1012.4 |
| 20260504044459 | 43 | 273 | 0.9 | 3.5 | 0.00 | 0.00 | 0.00 | 58 | 1012.3 |
| 20260504042959 | 44 | 284 | 1.7 | 2.6 | 0.00 | 0.00 | 0.00 | 56 | 1012.1 |
| 20260504041459 | 45 | 249 | 1.7 | 5.2 | 0.00 | 0.00 | 0.00 | 55 | 1012.1 |
| 20260504034458 | 44 | 291 | 0.9 | 3.5 | 0.00 | 0.00 | 0.00 | 56 | 1011.9 |
| 20260504032959 | 44 | 215 | 1.7 | 4.3 | 0.00 | 0.00 | 0.00 | 56 | 1011.8 |
| 20260504031459 | 44 | 252 | 0.9 | 4.3 | 0.00 | 0.00 | 0.00 | 56 | 1011.9 |
| 20260504025959 | 44 | 249 | 0.9 | 2.6 | 0.00 | 0.00 | 0.00 | 56 | 1011.9 |
| 20260504024458 | 44 | 212 | 0.9 | 4.3 | 0.00 | 0.00 | 0.00 | 57 | 1011.9 |
| 20260504022958 | 43 | 267 | 0.9 | 4.3 | 0.00 | 0.00 | 0.00 | 57 | 1012.0 |
| 20260504021458 | 43 | 252 | 0.9 | 1.7 | 0.00 | 0.00 | 0.00 | 56 | 1011.8 |
| 20260504015958 | 44 | 222 | 0.9 | 2.6 | 0.00 | 0.00 | 0.00 | 55 | 1011.9 |
| 20260504014457 | 44 | 238 | 0.9 | 1.7 | 0.00 | 0.00 | 0.00 | 54 | 1011.9 |
| 20260504012958 | 45 | 243 | 0.9 | 0.9 | 0.00 | 0.00 | 0.00 | 52 | 1011.7 |
| 20260504011459 | 45 | 249 | 0.9 | 1.7 | 0.00 | 0.00 | 0.00 | 50 | 1011.5 |
| 20260504010000 | 46 | 246 | 0.9 | 2.6 | 0.00 | 0.00 | 0.00 | 48 | 1011.4 |
| 20260504004500 | 47 | 262 | 0.9 | 2.6 | 0.00 | 0.00 | 0.00 | 46 | 1011.4 |
| 20260504002958 | 48 | 255 | 1.7 | 4.3 | 0.00 | 0.00 | 0.00 | 45 | 1011.3 |
| 20260504001500 | 48 | 264 | 1.7 | 3.5 | 0.00 | 0.00 | 0.00 | 44 | 1011.1 |
| 20260503235959 | 49 | 283 | 1.7 | 3.5 | 0.00 | 0.00 | 0.00 | 44 | 1010.9 |
| 20260503232958 | 50 | 266 | 2.6 | 5.2 | 0.00 | 0.00 | 0.00 | 43 | 1010.6 |
| 20260503224458 | 51 | 257 | 3.5 | 7.0 | 0.00 | 0.00 | 0.00 | 40 | 1010.5 |
| 20260503222958 | 52 | 232 | 4.3 | 8.7 | 0.00 | 0.00 | 0.00 | 39 | 1010.5 |
| 20260503215959 | 52 | 303 | 3.5 | 9.6 | 0.00 | 0.00 | 0.00 | 40 | 1010.4 |
| 20260503214458 | 52 | 300 | 4.3 | 11.3 | 0.00 | 0.00 | 0.00 | 38 | 1010.3 |
| 20260503212959 | 52 | 270 | 2.6 | 7.8 | 0.00 | 0.00 | 0.00 | 39 | 1010.2 |
| 20260503211458 | 52 | 264 | 3.5 | 12.2 | 0.00 | 0.00 | 0.00 | 38 | 1010.1 |
| 20260503204458 | 52 | 311 | 4.3 | 14.8 | 0.00 | 0.00 | 0.00 | 38 | 1010.0 |
| 20260503202958 | 52 | 352 | 6.1 | 13.9 | 0.00 | 0.00 | 0.00 | 37 | 1009.9 |
| 20260503201458 | 52 | 328 | 4.3 | 18.2 | 0.00 | 0.00 | 0.00 | 35 | 1010.1 |
| 20260503200002 | 53 | 16 | 5.2 | 10.4 | 0.00 | 0.00 | 0.00 | 34 | 1010.1 |
| 20260503194500 | 53 | 347 | 5.2 | 12.2 | 0.00 | 0.00 | 0.00 | 35 | 1010.2 |
| 20260503193000 | 53 | 305 | 6.1 | 11.3 | 0.00 | 0.00 | 0.00 | 34 | 1010.4 |
| 20260503191500 | 54 | 271 | 4.3 | 9.6 | 0.00 | 0.00 | 0.00 | 37 | 1010.5 |
| 20260503190001 | 52 | 273 | 6.1 | 569.2 | 1.01 | 0.00 | 0.00 | 36 | |
| 20260503184459 | 51 | 342 | 7.0 | 17.4 | 0.00 | 0.00 | 0.00 | 38 | 1010.9 |
| 20260503182959 | 51 | 235 | 4.3 | 11.3 | 0.00 | 0.00 | 0.00 | 41 | 1011.2 |
| 20260503175959 | 48 | 290 | 5.2 | 12.2 | 0.00 | 0.00 | 0.00 | 40 | 1011.5 |
| 20260503172958 | 47 | 296 | 3.5 | 11.3 | 0.00 | 0.00 | 0.00 | 44 | 1011.6 |
| 20260503171459 | 47 | 275 | 5.2 | 13.0 | 0.00 | 0.00 | 0.00 | 41 | 1011.9 |